Location: Buckeye Ditch
(40.9104°N, 122.9517°W)
Time: 03:23:02
(UTC+00:00)

ATLAS 2AS CENTAUR R/B - Visible Passes

Search period start: 19 July 2024 00:00
Search period end: 29 July 2024 00:00
Orbit: 1019 x 1192 km, 63.7° (Epoch: 18 July)

Date Brightness Start Highest point End Pass type
(mag) Time Alt. Az. Time Alt. Az. Time Alt. Az.
20 Jul 4.2 12:21:29 10° S 12:28:07 37° ESE 12:34:34 10° NE visible
21 Jul 4.8 11:38:00 10° SSE 11:43:29 23° ESE 11:48:50 10° ENE visible
22 Jul 5.1 10:55:54 10° SE 10:58:58 13° ESE 11:02:00 10° E visible
23 Jul 3.7 11:56:56 10° S 12:03:57 48° ESE 12:10:46 10° NE visible
24 Jul 4.3 11:13:02 10° SSE 11:19:14 30° ESE 11:25:18 10° NE visible
25 Jul 4.8 10:29:58 10° SSE 10:34:40 18° ESE 10:39:15 10° ENE visible
25 Jul 2.9 12:17:19 10° SSW 12:24:45 88° NW 12:31:56 10° NE visible
26 Jul 3.2 11:33:22 14° SSW 11:39:50 61° ESE 11:46:53 10° NE visible
27 Jul 3.8 10:50:12 18° S 10:55:03 39° ESE 11:01:36 10° NE visible
28 Jul 4.4 10:06:59 18° SE 10:10:24 24° ESE 10:15:56 10° ENE visible
28 Jul 2.9 11:54:25 15° SW 12:00:44 71° NW 12:07:52 10° NNE visible
